TimeHAST,TemperatureF,Dew PointF,Humidity,Sea Level PressureIn,VisibilityMPH,Wind Direction,Wind SpeedMPH,Gust SpeedMPH,PrecipitationIn,Events,Conditions,WindDirDegrees,DateUTC
12:16 AM,28.4,21.2,74,29.60,10.0,NNE,23.0,-,N/A,,Overcast,30,2013-02-13 10:16:00
12:36 AM,28.4,19.4,69,29.60,10.0,NNE,20.7,29.9,0.01,,Overcast,20,2013-02-13 10:36:00
12:56 AM,28.4,17.6,64,29.60,10.0,NNE,19.6,25.3,0.01,,Overcast,30,2013-02-13 10:56:00
1:16 AM,28.4,17.6,64,29.60,10.0,North,20.7,24.2,N/A,,Scattered Clouds,10,2013-02-13 11:16:00
1:36 AM,28.4,17.6,64,29.61,10.0,North,20.7,27.6,N/A,,Scattered Clouds,10,2013-02-13 11:36:00
1:56 AM,28.4,17.6,64,29.61,10.0,NNE,20.7,-,N/A,,Overcast,20,2013-02-13 11:56:00
2:16 AM,28.4,17.6,64,29.62,10.0,NNE,20.7,25.3,N/A,,Overcast,20,2013-02-13 12:16:00
2:36 AM,28.4,17.6,64,29.62,10.0,NNE,18.4,24.2,0.01,,Overcast,20,2013-02-13 12:36:00
2:56 AM,28.4,19.4,69,29.62,10.0,NNE,20.7,28.8,0.01,,Overcast,30,2013-02-13 12:56:00
3:16 AM,28.4,19.4,69,29.62,10.0,NNE,24.2,28.8,N/A,,Overcast,30,2013-02-13 13:16:00
3:36 AM,28.4,19.4,69,29.63,10.0,NNE,23.0,28.8,N/A,,Mostly Cloudy,20,2013-02-13 13:36:00
3:56 AM,28.4,24.8,86,29.63,3.0,NE,20.7,34.5,N/A,,Mostly Cloudy,40,2013-02-13 13:56:00
4:16 AM,28.4,23.0,80,29.63,9.0,NNE,25.3,34.5,N/A,,Mostly Cloudy,30,2013-02-13 14:16:00
4:36 AM,28.4,19.4,69,29.64,10.0,NNE,24.2,28.8,N/A,,Overcast,30,2013-02-13 14:36:00
4:56 AM,28.4,19.4,69,29.65,10.0,NNE,25.3,29.9,0.01,,Overcast,20,2013-02-13 14:56:00
5:16 AM,28.4,19.4,69,29.65,10.0,NNE,23.0,29.9,N/A,,Overcast,20,2013-02-13 15:16:00
5:36 AM,28.4,19.4,69,29.65,10.0,NNE,27.6,33.4,N/A,,Overcast,20,2013-02-13 15:36:00
5:56 AM,28.4,21.2,74,29.67,5.0,NNE,24.2,33.4,0.01,,Mostly Cloudy,20,2013-02-13 15:56:00
6:16 AM,26.6,21.2,80,29.67,1.5,NNE,21.9,-,0.02,,Overcast,20,2013-02-13 16:16:00
6:36 AM,26.6,21.2,80,29.68,5.0,NNE,23.0,31.1,0.02,,Mostly Cloudy,20,2013-02-13 16:36:00
6:56 AM,26.6,21.2,80,29.69,5.0,NNE,26.5,32.2,0.04,,Mostly Cloudy,30,2013-02-13 16:56:00
7:16 AM,28.4,19.4,69,29.70,8.0,NNE,28.8,34.5,N/A,,Mostly Cloudy,20,2013-02-13 17:16:00
7:36 AM,26.6,19.4,74,29.72,10.0,NNE,20.7,32.2,N/A,,Overcast,30,2013-02-13 17:36:00
7:56 AM,26.6,19.4,74,29.74,2.5,NNE,18.4,26.5,N/A,,Mostly Cloudy,30,2013-02-13 17:56:00
8:16 AM,26.6,19.4,74,29.74,6.0,NNE,21.9,28.8,N/A,,Mostly Cloudy,30,2013-02-13 18:16:00
8:36 AM,26.6,17.6,69,29.75,10.0,NNE,23.0,27.6,N/A,,Overcast,20,2013-02-13 18:36:00
8:56 AM,26.6,19.4,74,29.76,6.0,NNE,19.6,27.6,N/A,,Overcast,20,2013-02-13 18:56:00
9:16 AM,26.6,17.6,69,29.77,8.0,NNE,20.7,26.5,0.01,,Overcast,20,2013-02-13 19:16:00
9:36 AM,26.6,17.6,69,29.78,9.0,North,21.9,27.6,0.01,,Overcast,10,2013-02-13 19:36:00
9:56 AM,26.6,15.8,64,29.80,9.0,NNE,20.7,32.2,0.01,,Overcast,30,2013-02-13 19:56:00
10:16 AM,26.6,17.6,69,29.81,8.0,NNE,19.6,-,0.01,,Overcast,30,2013-02-13 20:16:00
10:36 AM,26.6,17.6,69,29.82,10.0,NNE,20.7,27.6,0.01,,Overcast,30,2013-02-13 20:36:00
10:56 AM,26.6,15.8,64,29.82,10.0,NNE,20.7,-,0.01,,Overcast,30,2013-02-13 20:56:00
11:16 AM,26.6,15.8,64,29.83,10.0,NNE,18.4,21.9,0.01,,Overcast,30,2013-02-13 21:16:00
11:36 AM,26.6,15.8,64,29.84,10.0,NNE,10.4,-,0.01,,Overcast,20,2013-02-13 21:36:00
11:56 AM,26.6,19.4,74,29.86,2.5,NNE,15.0,26.5,0.01,,Mostly Cloudy,20,2013-02-13 21:56:00
12:16 PM,26.6,19.4,74,29.86,10.0,NNE,15.0,20.7,0.01,,Mostly Cloudy,30,2013-02-13 22:16:00
12:36 PM,26.6,21.2,80,29.86,3.0,NNE,12.7,-,0.01,,Overcast,20,2013-02-13 22:36:00
12:56 PM,26.6,19.4,74,29.87,10.0,NNE,16.1,-,0.02,,Overcast,30,2013-02-13 22:56:00
1:16 PM,26.6,15.8,64,29.87,10.0,NNE,16.1,-,N/A,,Overcast,30,2013-02-13 23:16:00
1:36 PM,26.6,21.2,80,29.87,7.0,North,17.3,26.5,N/A,,Overcast,360,2013-02-13 23:36:00
1:56 PM,26.6,19.4,74,29.87,8.0,NNE,19.6,23.0,N/A,,Overcast,20,2013-02-13 23:56:00
2:16 PM,26.6,19.4,74,29.87,10.0,NNE,23.0,-,N/A,,Overcast,20,2013-02-14 00:16:00
2:36 PM,26.6,17.6,69,29.88,10.0,North,17.3,-,N/A,,Overcast,10,2013-02-14 00:36:00
2:56 PM,28.4,15.8,59,29.88,10.0,NNE,17.3,-,N/A,,Overcast,20,2013-02-14 00:56:00
3:16 PM,26.6,21.2,80,29.88,6.0,NNE,23.0,-,N/A,,Overcast,20,2013-02-14 01:16:00
3:36 PM,26.6,17.6,69,29.87,7.0,North,18.4,-,N/A,,Mostly Cloudy,10,2013-02-14 01:36:00
3:56 PM,26.6,19.4,74,29.88,9.0,North,26.5,-,N/A,,Mostly Cloudy,10,2013-02-14 01:56:00
4:16 PM,26.6,21.2,80,29.89,3.0,NNE,19.6,28.8,N/A,,Overcast,20,2013-02-14 02:16:00
4:36 PM,26.6,17.6,69,29.89,10.0,NNE,19.6,23.0,N/A,,Overcast,20,2013-02-14 02:36:00
4:56 PM,26.6,15.8,64,29.90,10.0,NNE,21.9,26.5,N/A,,Overcast,30,2013-02-14 02:56:00
5:16 PM,26.6,15.8,64,29.91,10.0,NNE,15.0,23.0,N/A,,Overcast,20,2013-02-14 03:16:00
5:36 PM,26.6,15.8,64,29.91,10.0,NNE,17.3,23.0,N/A,,Overcast,20,2013-02-14 03:36:00
5:56 PM,26.6,15.8,64,29.92,10.0,North,16.1,-,N/A,,Overcast,10,2013-02-14 03:56:00
6:16 PM,26.6,15.8,64,29.93,10.0,North,17.3,-,0.01,,Overcast,10,2013-02-14 04:16:00
6:36 PM,26.6,15.8,64,29.94,10.0,NNE,12.7,-,0.01,,Overcast,20,2013-02-14 04:36:00
6:56 PM,26.6,17.6,69,29.95,10.0,North,15.0,-,0.01,,Overcast,10,2013-02-14 04:56:00
7:16 PM,26.6,17.6,69,29.95,10.0,NNE,12.7,-,N/A,,Overcast,20,2013-02-14 05:16:00
7:36 PM,26.6,15.8,64,29.97,10.0,North,17.3,20.7,N/A,,Overcast,10,2013-02-14 05:36:00
7:56 PM,26.6,17.6,69,29.98,8.0,North,15.0,21.9,N/A,,Overcast,360,2013-02-14 05:56:00
8:16 PM,26.6,19.4,74,29.98,7.0,North,12.7,20.7,N/A,,Mostly Cloudy,10,2013-02-14 06:16:00
8:36 PM,24.8,21.2,86,29.98,3.0,North,18.4,-,0.01,,Overcast,10,2013-02-14 06:36:00
8:56 PM,26.6,17.6,69,29.99,10.0,NNE,17.3,-,0.01,,Overcast,20,2013-02-14 06:56:00
9:16 PM,26.6,17.6,69,29.99,10.0,North,12.7,19.6,N/A,,Overcast,10,2013-02-14 07:16:00
9:36 PM,26.6,21.2,80,29.99,8.0,North,9.2,-,N/A,,Overcast,360,2013-02-14 07:36:00
9:56 PM,26.6,15.8,64,30.00,10.0,NNE,13.8,-,N/A,,Overcast,20,2013-02-14 07:56:00
10:16 PM,26.6,17.6,69,30.01,9.0,North,12.7,24.2,N/A,,Overcast,10,2013-02-14 08:16:00
10:36 PM,26.6,17.6,69,30.01,10.0,NNE,11.5,-,N/A,,Overcast,20,2013-02-14 08:36:00
10:56 PM,24.8,21.2,86,30.02,8.0,North,12.7,-,N/A,,Overcast,10,2013-02-14 08:56:00
11:16 PM,24.8,21.2,86,30.02,8.0,North,10.4,-,N/A,,Mostly Cloudy,10,2013-02-14 09:16:00
11:36 PM,26.6,15.8,64,30.02,10.0,NNE,12.7,19.6,0.01,,Overcast,20,2013-02-14 09:36:00
11:56 PM,26.6,17.6,69,30.03,10.0,NNE,16.1,19.6,0.01,,Overcast,20,2013-02-14 09:56:00